Regional Weather Roundup
Issued by NWS Albany, NY

Home | Current Version | Previous Version | Text Only | Print | Product List | Glossary On
Versions: 1 2 3 4 5 6 7 8 9 10 11 12 13 14 15 16 17 18 19 20 21 22 23 24 25 26 27 28 29 30 31 32 33 34 35 36 37 38 39 40 41 42 43 44 45 46 47 48 49 50
714
ASUS41 KALY 211510
RWRALY

NEW YORK STATE HOURLY WEATHER ROUNDUP
NATIONAL WEATHER SERVICE ALBANY NY
1100 AM EDT MON MAY 21 2018

NOTE: "FAIR" INDICATES FEW OR NO CLOUDS BELOW 12,000 FEET WITH NO
SIGNIFICANT WEATHER AND/OR NO OBSTRUCTIONS TO VISIBILITY.

NYZ032-033-038>043-046>054-057>066-NYZ062>081-082-084-211600-
EAST


CITY           SKY/WX    TMP DP  RH WIND       PRES   REMARKS
ALBANY         FAIR      68  44  42 N5        30.22S
GLENS FALLS    FAIR      64  48  56 SE7       30.20F
POUGHKEEPSIE   FAIR      68  44  42 N9        30.20S
NEWBURGH       MOSUNNY   66  52  59 CALM      30.22S
MONTGOMERY     FAIR      68  49  50 CALM      30.20S
WHITE PLAINS   FAIR      68  41  37 VRB6      30.20S
ISLIP          PTSUNNY   70  53  54 NE6       30.20R
NEW YORK CITY  PTSUNNY   69  46  43 NE8       30.20S
CENTRAL PARK   FAIR      69  45  41 VRB6      30.23S
$$

NYZ005>009-017-018-044>046-055-056-211600-
CENTRAL


CITY           SKY/WX    TMP DP  RH WIND       PRES   REMARKS
FULTON         FAIR      63  49  60 S6        30.25S
SYRACUSE       PTSUNNY   63  52  67 W6        30.24F
ROME           FAIR      61  52  72 W6        30.26S
ELMIRA         FAIR      65  51  60 E5        30.25F
BINGHAMTON     FAIR      61  47  59 CALM      30.24F
$$

NYZ026>034-041>043-087-211600-
NORTH


CITY           SKY/WX    TMP DP  RH WIND       PRES   REMARKS
WATERTOWN      FAIR      65  45  48 W8        30.22F
FORT DRUM      NOT AVBL
OGDENSBURG     FAIR      69  44  41 SW9       30.18F
MASSENA        FAIR      69  46  43 SW12G18   30.17F
SARANAC LAKE   FAIR      63  39  41 SW12G20   30.18F
PLATTSBURGH    FAIR      64  44  48 SE10      30.14F
$$

NYZ001>004-010>016-019>021-085-211600-
WEST


CITY           SKY/WX    TMP DP  RH WIND       PRES   REMARKS
NIAGARA FALLS  FAIR      63  40  42 CALM      30.26S
BUFFALO        FAIR      62  40  44 VRB3      30.26S
DUNKIRK        FAIR      60  45  57 N8        30.26S
JAMESTOWN      FAIR      58  49  72 E7        30.27S
WELLSVILLE     FAIR      64  46  52 NE5       30.27F
ROCHESTER      FAIR      63  44  50 S3        30.27S
PENN YAN       FAIR      64  41  42 SE3       30.26S
$$

             KEY
       WCI = WIND CHILL INDEX
       VSB = VISIBILITY
       HX  = HEAT INDEX
$$




USA.gov is the U.S. government's official web portal to all federal, state and local government web resources and services.